Regional Weather Roundup
Issued by NWS Kansas City/Pleasant Hill, MO

Home | Current Version | Previous Version | Text Only | Print | Product List | Glossary On
Versions: 1 2 3 4 5 6 7 8 9 10 11 12 13 14 15 16 17 18 19 20 21 22 23 24 25 26 27 28 29 30 31 32 33 34 35 36 37 38 39 40 41 42 43 44 45 46 47 48 49 50
000
ASUS43 KEAX 050711
RWREAX

WEATHER ROUNDUP FOR EASTERN KANSAS AND NORTHWEST MISSOURI
NATIONAL WEATHER SERVICE KANSAS CITY/PLEASANT HILL MO
200 AM CDT TUE MAY 05 2015

KSZ040-057-103>105-MOZ028-029-037-043-050800-
...KANSAS CITY METROPOLITAN AREA...

CITY           SKY/WX    TMP DP  RH WIND       PRES   REMARKS
K.C. INTL      CLOUDY    60  59  96 SW5       30.08F
K.C. DOWNTOWN  CLOUDY    64  61  90 S3        30.08F
LEES SUMMIT    CLOUDY    61  60  97 SW3       30.10F FOG
OLATHE - IXD   CLOUDY    62  61  96 SE5       30.10F
OLATHE - OJC   CLOUDY    62  61  96 CALM      30.09F
LAWRENCE       CLOUDY    62  60  93 SE3       30.08F

$$

MOZ001>008-011>017-020>025-030>033-038>040-044>046-053-054-050800-
...NORTHERN AND CENTRAL MISSOURI...

CITY           SKY/WX    TMP DP  RH WIND       PRES   REMARKS
ST. JOSEPH     CLOUDY    62  60  93 CALM      30.06F
MOSBY          CLOUDY    61  61 100 CALM      30.08F
WARRENSBURG    MOCLDY    63  59  88 SE5       30.09F
WHITEMAN AFB   NOT AVBL
CLINTON        MOCLDY    70  63  78 W6        30.11S
SEDALIA        CLOUDY    69  61  75 NW6       30.12S
WARSAW         NOT AVBL
MARSHALL       CLOUDY    66  63  88 CALM      30.11F
CHILLICOTHE      N/A     62  60  93 SE3       30.09F
MOBERLY        CLOUDY    64  59  82 NW5       30.10F
KIRKSVILLE     CLOUDY    63  62  97 SE6       30.11R

$$

MOZ041-047>049-056>058-063>065-088>090-097-050800-
...EASTERN AND SOUTHERN MISSOURI...

CITY           SKY/WX    TMP DP  RH WIND       PRES   REMARKS
ST. LOUIS INTL MOCLDY    73  54  51 SW8       30.14R
SPIRIT OF STL  CLOUDY    71  54  54 SW7       30.13R
COLUMBIA       CLOUDY    68  56  65 S9        30.11S
JEFFERSON CITY CLOUDY    70  55  59 S9        30.11S
MEXICO         CLOUDY    72  61  68 S9        30.11R
HANNIBAL       TSTM      68  59  73 W7G13     30.13R
ROLLA          MOCLDY    65  55  70 S10       30.14S
LEBANON        PTCLDY    63  54  72 S6        30.16F
OSAGE BEACH    MOCLDY    64  54  68 S6        30.13F
SPRINGFIELD    CLEAR     61  53  75 SE8       30.14F
BRANSON        CLEAR     61  54  77 CALM      30.16F
NEVADA         MOCLDY    63  57  82 S7        30.12S
JOPLIN         CLEAR     64  54  69 SE6       30.12S
WEST PLAINS    CLEAR     65  53  65 S3        30.18F

$$

IAZ060-094-KSZ022-034>040-054-083-096-NEZ052-066-093-050800-
...KANSAS...SOUTHEAST NEBRASKA AND IOWA...

CITY           SKY/WX    TMP DP  RH WIND       PRES   REMARKS
TOPEKA         CLOUDY    62  60  93 CALM      30.08F
MANHATTAN      CLOUDY    60  60 100 CALM      30.07F
EMPORIA        MOCLDY    60  57  89 E8        30.08F
CHANUTE        MOCLDY    62  58  86 SE7       30.09F
WICHITA        MOCLDY    65  56  72 SE8       30.05F
OMAHA          CLOUDY    60  57  89 N5        30.07S
LINCOLN        CLOUDY    61  59  93 S6        30.06F
FALLS CITY     LGT RAIN  61  61 100 NW6       30.07F
LAMONI         CLOUDY    63  59  87 W8        30.05F
DES MOINES     CLOUDY    64  61  90 NE5       30.07S FOG

$$



USA.gov is the U.S. government's official web portal to all federal, state and local government web resources and services.